This demonstration page uses our WeatherBlox Daily Observations layout. Learn more.

Left ArrowRight Arrow

41.12389, -100.76542

Hourly Observations for July 15, 2016

Temp ( °F °C ) Dew Point ( °F °C ) Humidity (%) Winds ( mph kmh ) Pressure ( in mb ) Visibility ( mi km ) Precip ( " mm )
12:53 am 00:53 Clear 62 16.7 58 14.4 86 86 ESE 3 6 30.04 1017 10 16 0.00 0.00
1:53 am 01:53 Clear 61 16.1 58 14.4 90 90 E 5 7 30.04 1017 10 16 0.00 0.00
2:53 am 02:53 Clear 60 15.6 58 14.4 93 93 ESE 5 7 30.03 1017 10 16 0.00 0.00
3:53 am 03:53 Clear 60 15.6 58 14.4 93 93 Calm 30.01 1016 10 16 0.00 0.00
4:53 am 04:53 Mostly Clear 63 17.2 61 16.1 93 93 ENE 5 7 30.01 1016 10 16 0.00 0.03
5:53 am 05:53 Mostly Cloudy with Light Rain 65 18.3 62 16.7 90 90 E 7 11 30.04 1017 10 16 0.01 0.25
6:25 am 06:25 Cloudy with Light Rain 64 17.8 62 16.7 93 93 ESE 20 31 30.00 1016 10 16 0.00 0.03
6:53 am 06:53 Partly Cloudy with Light Rain 61 16.1 58 14.4 90 90 SE 16 26 30.03 1017 10 16 0.00 0.03
7:43 am 07:43 Cloudy 60 15.6 58 14.4 93 93 ENE 16 26 30.09 1019 10 16 0.00 0.03
7:53 am 07:53 Cloudy 60 15.6 57 13.9 90 90 NNE 29 46 30.13 1020 10 16 0.00 0.03
7:55 am 07:55 Cloudy 61 16 57 14 88 88 NNE 26 43 30.12 1020 10 16 0.00 0.00
8:03 am 08:03 Cloudy with Nearby Thunderstorms 61 16 55 13 83 83 NE 31 50 30.12 1020 10 16 0.00 0.00
8:34 am 08:34 Cloudy with Nearby Thunderstorms 59 15 55 13 88 88 E 25 41 30.12 1020 10 16 0.00 0.00
8:46 am 08:46 Cloudy with Strong Thunderstorms 59 15 55 13 88 88 ENE 26 43 30.12 1020 5 8 0.00 0.00
8:53 am 08:53 Windy with Storms Likely 59 15 55 12.8 87 87 E 21 33 30.13 1020 7 11 0.03 0.76
9:44 am 09:44 Cloudy with Nearby Thunderstorms 57 14 55 13 94 94 E 17 28 30.12 1020 10 16 0.00 0.00
9:53 am 09:53 Cloudy 58 14.4 55 12.8 90 90 ESE 16 26 30.14 1021 10 16 0.20 5.08
10:35 am 10:35 Cloudy with Nearby Thunderstorms 59 15 55 13 88 88 ESE 18 30 30.15 1021 10 16 0.00 0.00
10:47 am 10:47 Cloudy with Nearby Thunderstorms 59 15 55 13 88 88 NW 26 43 30.24 1024 10 16 0.00 0.00
10:53 am 10:53 Cloudy with Strong Thunderstorms 58 14.4 55 12.8 90 90 N 24 39 30.19 1022 1 2 0.00 0.03
10:56 am 10:56 Cloudy with Strong Thunderstorms 57 14 54 12 88 88 NE 24 39 30.18 1022 1 1 0.00 0.00
11:06 am 11:06 Cloudy with Thunderstorms 55 13 54 12 94 94 NE 14 22 30.24 1024 1 2 0.00 0.00
11:08 am 11:08 Cloudy with Nearby Thunderstorms 54 12 54 12 100 100 NE 12 19 30.24 1024 2 3 0.00 0.00
11:13 am 11:13 Cloudy with Thunderstorms 54 12.2 54 12.2 100 100 NNE 9 15 30.27 1025 6 10 0.26 6.60
11:36 am 11:36 Cloudy with Thunderstorms 55 12.8 54 12.2 96 96 ESE 15 24 30.21 1023 3 4 0.40 10.16
11:42 am 11:42 Cloudy with Nearby Thunderstorms 55 13 54 12 94 94 ESE 13 20 30.15 1021 10 16 0.00 0.00
11:53 am 11:53 Cloudy with Nearby Thunderstorms 56 13.3 54 12.2 93 93 E 9 15 30.21 1023 10 16 0.40 10.16
12:15 pm 12:15 Cloudy with Thunderstorms 57 13.9 55 12.8 93 93 E 9 15 30.18 1022 10 16 0.00 0.03
12:53 pm 12:53 Cloudy with Thunderstorms 58 14.4 56 13.3 93 93 SE 14 22 30.18 1022 10 16 0.05 1.27
1:05 pm 13:05 Cloudy with Nearby Thunderstorms 59 15 57 13.9 93 93 SE 15 24 30.15 1021 10 16 0.00 0.00
1:13 pm 13:13 Cloudy 58 14.4 56 13.3 93 93 SE 14 22 30.15 1021 10 16 0.00 0.00
1:45 pm 13:45 Cloudy with Thunderstorms 59 15 57 13.9 93 93 SE 10 17 30.12 1020 10 16 0.00 0.03
1:53 pm 13:53 Cloudy with Thunderstorms 60 15.6 58 14.4 93 93 SSE 13 20 30.13 1020 10 16 0.00 0.03
2:06 pm 14:06 Cloudy 63 17 59 15 88 88 SSE 13 20 30.09 1019 10 16 0.00 0.00
2:53 pm 14:53 Partly Cloudy 67 19.4 60 15.6 79 79 SSE 14 22 30.09 1019 10 16 0.00 0.03
3:53 pm 15:53 Cloudy 70 21.1 58 14.4 66 66 S 8 13 30.06 1018 10 16 0.00 0.00
4:53 pm 16:53 Cloudy 72 22.2 59 15 64 64 Calm 30.04 1017 10 16 0.00 0.00
5:53 pm 17:53 Sunny 75 23.9 61 16.1 62 62 SE 3 6 30.01 1016 10 16 0.00 0.00
6:53 pm 18:53 Sunny 75 23.9 61 16.1 62 62 ESE 7 11 30.01 1016 10 16 0.00 0.00
7:53 pm 19:53 Sunny 73 22.8 61 16.1 66 66 E 7 11 30.02 1017 10 16 0.00 0.00
8:53 pm 20:53 Sunny 69 20.6 62 16.7 78 78 SE 3 6 30.04 1017 10 16 0.00 0.00
9:53 pm 21:53 Clear 63 17.2 60 15.6 90 90 ESE 6 9 30.06 1018 10 16 0.00 0.00
10:53 pm 22:53 Clear 61 16.1 60 15.6 97 97 ESE 6 9 30.07 1018 10 16 0.00 0.00
11:53 pm 23:53 Clear 61 16.1 59 15 93 93 E 6 9 30.06 1018 10 16 0.00 0.00

Powered by AerisWeather